Time,TemperatureF,DewpointF,PressureIn,WindDirection,WindDirectionDegrees,WindSpeedMPH,WindSpeedGustMPH,Humidity,HourlyPrecipIn,Conditions,Clouds,dailyrainin,SoftwareType,DateUTC
2013-01-12 06:45:00,49.2,49.2,30.06,West,276,0.0,0.0,100,0.00,,,0.00,VWS V14.00,2013-01-12 11:45:00,
2013-01-12 06:46:00,49.2,49.2,30.06,West,276,0.0,0.0,100,0.00,,,0.00,VWS V14.00,2013-01-12 11:46:00,
2013-01-12 06:51:00,49.5,49.5,30.07,West,276,0.0,0.0,100,0.00,,,0.00,VWS V14.00,2013-01-12 11:51:00,
2013-01-12 06:56:00,49.4,49.4,30.07,West,276,0.0,0.0,100,0.00,,,0.00,VWS V14.00,2013-01-12 11:56:00,
2013-01-12 07:01:00,49.4,49.4,30.07,West,276,0.0,0.0,100,0.00,,,0.00,VWS V14.00,2013-01-12 12:01:00,
2013-01-12 07:06:00,49.5,49.5,30.08,West,276,0.0,0.0,100,0.00,,,0.00,VWS V14.00,2013-01-12 12:06:00,
2013-01-12 07:11:00,49.5,49.5,30.07,West,276,0.0,0.0,100,0.00,,,0.00,VWS V14.00,2013-01-12 12:11:00,
2013-01-12 07:16:00,49.5,49.5,30.08,West,276,0.0,0.0,100,0.00,,,0.00,VWS V14.00,2013-01-12 12:16:00,
2013-01-12 07:21:00,49.8,49.8,30.08,West,276,0.0,0.0,100,0.00,,,0.00,VWS V14.00,2013-01-12 12:21:00,
2013-01-12 07:26:00,49.8,49.8,30.08,West,276,0.0,0.0,100,0.00,,,0.00,VWS V14.00,2013-01-12 12:26:00,
2013-01-12 07:31:00,49.5,49.5,30.08,West,276,0.0,0.0,100,0.00,,,0.00,VWS V14.00,2013-01-12 12:31:00,
2013-01-12 07:36:00,49.6,49.6,30.08,West,276,0.0,0.0,100,0.00,,,0.00,VWS V14.00,2013-01-12 12:36:00,
2013-01-12 07:41:00,49.4,49.4,30.08,West,276,0.0,0.0,100,0.00,,,0.00,VWS V14.00,2013-01-12 12:41:00,
2013-01-12 07:46:00,49.4,49.4,30.08,West,276,0.0,0.0,100,0.00,,,0.00,VWS V14.00,2013-01-12 12:46:00,
2013-01-12 07:51:00,49.4,49.4,30.08,West,276,0.0,0.0,100,0.00,,,0.00,VWS V14.00,2013-01-12 12:51:00,
2013-01-12 07:56:00,49.5,49.5,30.08,West,276,0.0,0.0,100,0.00,,,0.00,VWS V14.00,2013-01-12 12:56:00,
2013-01-12 08:01:00,49.5,49.5,30.09,West,276,0.0,0.0,100,0.00,,,0.00,VWS V14.00,2013-01-12 13:01:00,
2013-01-12 08:06:00,49.6,49.6,30.09,West,276,0.0,0.0,100,0.00,,,0.00,VWS V14.00,2013-01-12 13:06:00,
2013-01-12 08:11:00,49.6,49.6,30.09,West,276,0.0,0.0,100,0.00,,,0.00,VWS V14.00,2013-01-12 13:11:00,
2013-01-12 08:16:00,49.3,49.3,30.09,West,276,0.0,0.0,100,0.00,,,0.00,VWS V14.00,2013-01-12 13:16:00,
2013-01-12 08:21:00,49.4,49.4,30.09,West,276,0.0,0.0,100,0.00,,,0.00,VWS V14.00,2013-01-12 13:21:00,
2013-01-12 08:26:00,49.4,49.4,30.09,West,276,0.0,0.0,100,0.00,,,0.00,VWS V14.00,2013-01-12 13:26:00,
2013-01-12 08:31:00,49.5,49.5,30.09,West,276,0.0,0.0,100,0.00,,,0.00,VWS V14.00,2013-01-12 13:31:00,
2013-01-12 08:36:00,49.7,49.7,30.09,West,276,0.0,0.0,100,0.00,,,0.00,VWS V14.00,2013-01-12 13:36:00,
2013-01-12 08:41:00,49.7,49.7,30.09,West,276,0.0,0.0,100,0.00,,,0.00,VWS V14.00,2013-01-12 13:41:00,
2013-01-12 08:46:00,49.8,49.8,30.09,West,276,0.0,0.0,100,0.00,,,0.00,VWS V14.00,2013-01-12 13:46:00,
2013-01-12 08:51:00,50.1,50.1,30.10,West,276,0.0,0.0,100,0.00,,,0.00,VWS V14.00,2013-01-12 13:51:00,
2013-01-12 08:56:00,50.3,50.3,30.10,West,276,0.0,0.0,100,0.00,,,0.00,VWS V14.00,2013-01-12 13:56:00,
2013-01-12 09:01:00,50.8,50.8,30.10,West,276,0.0,0.0,100,0.00,,,0.00,VWS V14.00,2013-01-12 14:01:00,
2013-01-12 09:06:00,49.9,49.9,30.10,West,276,0.0,0.0,100,0.00,,,0.00,VWS V14.00,2013-01-12 14:06:00,
2013-01-12 09:11:00,49.9,49.9,30.10,West,276,0.0,0.0,100,0.00,,,0.00,VWS V14.00,2013-01-12 14:11:00,
2013-01-12 09:16:00,49.3,49.3,30.10,WSW,243,0.0,0.0,100,0.00,,,0.00,VWS V14.00,2013-01-12 14:16:00,
2013-01-12 09:21:00,49.9,49.9,30.10,WSW,243,0.0,0.0,100,0.00,,,0.00,VWS V14.00,2013-01-12 14:21:00,
2013-01-12 09:26:00,49.4,49.4,30.10,WSW,243,0.0,0.0,100,0.00,,,0.00,VWS V14.00,2013-01-12 14:26:00,
2013-01-12 09:31:00,49.4,49.4,30.10,WSW,243,0.0,0.0,100,0.00,,,0.00,VWS V14.00,2013-01-12 14:31:00,
2013-01-12 09:36:00,49.5,49.5,30.10,WSW,243,0.0,0.0,100,0.00,,,0.00,VWS V14.00,2013-01-12 14:36:00,
2013-01-12 09:41:00,49.4,49.4,30.10,WSW,243,0.0,0.0,100,0.00,,,0.00,VWS V14.00,2013-01-12 14:41:00,
2013-01-12 09:46:00,49.3,49.3,30.10,West,269,0.0,0.0,100,0.00,,,0.00,VWS V14.00,2013-01-12 14:46:00,
2013-01-12 09:51:00,49.6,49.6,30.11,West,270,0.0,4.8,100,0.00,,,0.00,VWS V14.00,2013-01-12 14:51:00,
2013-01-12 09:56:00,49.3,49.3,30.11,WNW,284,0.0,5.8,100,0.00,,,0.00,VWS V14.00,2013-01-12 14:56:00,
2013-01-12 10:01:00,49.6,49.6,30.11,WNW,284,0.0,0.0,100,0.00,,,0.00,VWS V14.00,2013-01-12 15:01:00,
2013-01-12 10:06:00,49.6,49.6,30.10,West,271,0.0,3.2,100,0.00,,,0.00,VWS V14.00,2013-01-12 15:06:00,
2013-01-12 10:11:00,49.5,49.5,30.10,West,267,0.0,3.5,100,0.00,,,0.00,VWS V14.00,2013-01-12 15:11:00,
2013-01-12 10:16:00,49.3,49.3,30.10,SW,218,0.0,0.0,100,0.00,,,0.00,VWS V14.00,2013-01-12 15:16:00,
2013-01-12 10:21:00,48.9,48.9,30.10,SW,218,0.0,0.0,100,0.00,,,0.00,VWS V14.00,2013-01-12 15:21:00,
2013-01-12 10:26:00,52.4,52.4,30.10,SW,218,0.0,0.0,100,0.00,,,0.00,VWS V14.00,2013-01-12 15:26:00,
2013-01-12 10:31:00,52.0,52.0,30.10,SW,218,0.0,0.0,100,0.00,,,0.00,VWS V14.00,2013-01-12 15:31:00,
2013-01-12 10:36:00,52.1,52.1,30.10,SW,218,0.0,0.0,100,0.00,,,0.00,VWS V14.00,2013-01-12 15:36:00,
2013-01-12 10:41:00,51.7,51.7,30.10,SW,218,0.0,0.0,100,0.00,,,0.00,VWS V14.00,2013-01-12 15:41:00,
2013-01-12 10:46:00,52.4,52.4,30.10,SW,218,0.0,0.0,100,0.00,,,0.00,VWS V14.00,2013-01-12 15:46:00,
2013-01-12 10:51:00,52.7,52.7,30.10,SW,218,0.0,0.0,100,0.00,,,0.00,VWS V14.00,2013-01-12 15:51:00,
2013-01-12 10:56:00,52.6,52.6,30.10,SW,218,0.0,0.0,100,0.00,,,0.00,VWS V14.00,2013-01-12 15:56:00,
2013-01-12 11:01:00,52.2,52.2,30.10,SW,218,0.0,0.0,100,0.00,,,0.00,VWS V14.00,2013-01-12 16:01:00,
2013-01-12 11:06:00,52.5,52.5,30.10,West,278,0.0,3.5,100,0.00,,,0.00,VWS V14.00,2013-01-12 16:06:00,
2013-01-12 11:11:00,52.8,52.8,30.10,West,278,0.0,3.5,100,0.00,,,0.00,VWS V14.00,2013-01-12 16:11:00,
2013-01-12 11:16:00,52.2,52.2,30.10,West,278,0.0,0.0,100,0.00,,,0.00,VWS V14.00,2013-01-12 16:16:00,
2013-01-12 11:21:00,52.4,52.4,30.10,West,278,0.0,0.0,100,0.00,,,0.00,VWS V14.00,2013-01-12 16:21:00,
2013-01-12 11:26:00,52.6,52.6,30.09,West,278,0.0,0.0,100,0.00,,,0.00,VWS V14.00,2013-01-12 16:26:00,
2013-01-12 11:31:00,53.5,53.5,30.09,WSW,245,0.0,0.0,100,0.00,,,0.00,VWS V14.00,2013-01-12 16:31:00,
2013-01-12 11:36:00,53.3,53.3,30.09,WNW,290,0.0,3.5,100,0.00,,,0.00,VWS V14.00,2013-01-12 16:36:00,
2013-01-12 11:41:00,52.9,52.9,30.08,WNW,290,0.0,3.5,100,0.00,,,0.00,VWS V14.00,2013-01-12 16:41:00,
2013-01-12 11:46:00,52.0,52.0,30.08,WNW,290,0.0,0.0,100,0.00,,,0.00,VWS V14.00,2013-01-12 16:46:00,
2013-01-12 11:51:00,52.4,52.4,30.08,WNW,290,0.0,0.0,100,0.00,,,0.00,VWS V14.00,2013-01-12 16:51:00,
2013-01-12 11:56:00,51.2,51.2,30.08,WNW,290,0.0,0.0,100,0.00,,,0.00,VWS V14.00,2013-01-12 16:56:00,
2013-01-12 12:01:00,52.2,52.2,30.08,North,349,3.0,4.7,100,0.00,,,0.00,VWS V14.00,2013-01-12 17:01:00,
2013-01-12 12:06:00,50.7,50.7,30.08,WNW,302,0.0,4.8,100,0.00,,,0.00,VWS V14.00,2013-01-12 17:06:00,
2013-01-12 12:11:00,51.2,51.2,30.08,South,191,0.0,4.8,100,0.00,,,0.00,VWS V14.00,2013-01-12 17:11:00,
2013-01-12 12:16:00,51.2,51.2,30.08,NW,311,0.0,4.2,100,0.00,,,0.00,VWS V14.00,2013-01-12 17:16:00,
2013-01-12 12:21:00,53.1,53.1,30.07,NW,311,0.0,4.2,100,0.00,,,0.00,VWS V14.00,2013-01-12 17:21:00,
2013-01-12 12:26:00,55.7,55.7,30.07,NW,311,0.0,4.2,100,0.00,,,0.00,VWS V14.00,2013-01-12 17:26:00,
2013-01-12 12:31:00,56.1,56.1,30.07,NW,311,0.0,0.0,100,0.00,,,0.00,VWS V14.00,2013-01-12 17:31:00,
2013-01-12 12:36:00,55.7,55.7,30.07,West,264,4.5,4.5,100,0.00,,,0.00,VWS V14.00,2013-01-12 17:36:00,
2013-01-12 12:41:00,55.9,55.9,30.07,West,274,0.0,4.5,100,0.00,,,0.00,VWS V14.00,2013-01-12 17:41:00,
2013-01-12 12:46:00,57.3,57.3,30.07,West,274,0.0,0.0,100,0.00,,BKN120,0.00,VWS V14.00,2013-01-12 17:46:00,
2013-01-12 12:51:00,57.0,57.0,30.07,West,263,0.0,3.3,100,0.00,,BKN120,0.00,VWS V14.00,2013-01-12 17:51:00,
2013-01-12 12:56:00,58.5,58.5,30.06,West,263,0.0,3.3,100,0.00,,BKN120,0.00,VWS V14.00,2013-01-12 17:56:00,
2013-01-12 13:01:00,57.2,57.2,30.06,West,263,0.0,0.0,100,0.00,,BKN120,0.00,VWS V14.00,2013-01-12 18:01:00,
2013-01-12 13:06:00,56.8,56.8,30.06,West,263,0.0,0.0,100,0.00,,BKN120,0.00,VWS V14.00,2013-01-12 18:06:00,
2013-01-12 13:11:00,55.2,55.2,30.06,West,263,0.0,0.0,100,0.00,,BKN120,0.00,VWS V14.00,2013-01-12 18:11:00,
2013-01-12 13:16:00,54.0,54.0,30.06,West,263,0.0,0.0,100,0.00,,BKN120,0.00,VWS V14.00,2013-01-12 18:16:00,
2013-01-12 13:21:00,53.9,53.9,30.06,West,263,0.0,0.0,100,0.00,,BKN120,0.00,VWS V14.00,2013-01-12 18:21:00,
2013-01-12 13:26:00,55.3,55.3,30.06,West,263,0.0,0.0,100,0.00,,BKN120,0.00,VWS V14.00,2013-01-12 18:26:00,
2013-01-12 13:31:00,55.3,55.3,30.06,West,263,0.0,0.0,100,0.00,,BKN120,0.00,VWS V14.00,2013-01-12 18:31:00,
2013-01-12 13:36:00,54.5,54.5,30.06,West,263,0.0,0.0,100,0.00,,BKN120,0.00,VWS V14.00,2013-01-12 18:36:00,
2013-01-12 13:41:00,54.4,54.4,30.06,West,263,0.0,0.0,100,0.00,,BKN120,0.00,VWS V14.00,2013-01-12 18:41:00,
2013-01-12 13:46:00,54.5,54.5,30.06,West,263,0.0,0.0,100,0.00,,BKN110,0.00,VWS V14.00,2013-01-12 18:46:00,
2013-01-12 13:51:00,54.7,54.7,30.06,West,263,0.0,0.0,100,0.00,,BKN110,0.00,VWS V14.00,2013-01-12 18:51:00,
2013-01-12 13:56:00,55.0,55.0,30.06,West,263,0.0,0.0,100,0.00,,BKN110,0.00,VWS V14.00,2013-01-12 18:56:00,
2013-01-12 14:01:00,58.8,58.8,30.06,NW,307,0.0,0.0,100,0.00,,BKN110,0.00,VWS V14.00,2013-01-12 19:01:00,
2013-01-12 14:06:00,51.6,51.6,30.06,NW,307,0.0,0.0,100,0.00,,BKN110,0.00,VWS V14.00,2013-01-12 19:06:00,
2013-01-12 14:11:00,54.5,54.5,30.06,North,359,0.0,4.2,100,0.00,,BKN110,0.00,VWS V14.00,2013-01-12 19:11:00,
2013-01-12 14:16:00,53.4,53.4,30.06,North,352,0.0,0.0,100,0.00,,BKN110,0.00,VWS V14.00,2013-01-12 19:16:00,
2013-01-12 14:21:00,53.3,53.2,30.06,North,352,0.0,0.0,100,0.00,,BKN110,0.00,VWS V14.00,2013-01-12 19:21:00,
2013-01-12 14:26:00,56.1,56.0,30.06,North,352,0.0,0.0,100,0.00,,BKN110,0.00,VWS V14.00,2013-01-12 19:26:00,
2013-01-12 14:31:00,56.2,56.2,30.06,North,352,0.0,0.0,100,0.00,,BKN110,0.00,VWS V14.00,2013-01-12 19:31:00,
2013-01-12 14:36:00,59.4,59.0,30.06,North,352,0.0,0.0,99,0.00,,BKN110,0.00,VWS V14.00,2013-01-12 19:36:00,
2013-01-12 14:41:00,59.5,58.9,30.06,North,352,0.0,0.0,98,0.00,,BKN110,0.00,VWS V14.00,2013-01-12 19:41:00,
2013-01-12 14:46:00,62.4,61.8,30.06,North,352,0.0,0.0,98,0.00,,OVC110,0.00,VWS V14.00,2013-01-12 19:46:00,
2013-01-12 14:51:00,62.4,61.4,30.06,North,352,0.0,0.0,96,0.00,,OVC110,0.00,VWS V14.00,2013-01-12 19:51:00,
2013-01-12 14:56:00,62.5,61.3,30.06,SSW,200,7.0,8.3,96,0.00,,OVC110,0.00,VWS V14.00,2013-01-12 19:56:00,
2013-01-12 15:01:00,61.8,60.5,30.06,SSW,202,6.0,6.1,96,0.00,,OVC110,0.00,VWS V14.00,2013-01-12 20:01:00,
2013-01-12 15:06:00,61.8,60.5,30.06,SSW,200,4.3,6.4,96,0.00,,OVC110,0.00,VWS V14.00,2013-01-12 20:06:00,
2013-01-12 15:11:00,61.6,60.3,30.06,WSW,253,4.1,6.4,96,0.00,,OVC110,0.00,VWS V14.00,2013-01-12 20:11:00,
2013-01-12 15:16:00,62.3,60.8,30.06,SW,215,3.5,4.7,95,0.00,,OVC110,0.00,VWS V14.00,2013-01-12 20:16:00,
2013-01-12 15:21:00,62.9,61.5,30.06,SW,232,0.0,6.0,95,0.00,,OVC110,0.00,VWS V14.00,2013-01-12 20:21:00,
2013-01-12 15:26:00,62.3,60.9,30.06,West,274,0.0,6.0,95,0.00,,OVC110,0.00,VWS V14.00,2013-01-12 20:26:00,
2013-01-12 15:31:00,62.6,61.2,30.06,West,274,0.0,0.0,95,0.00,,OVC110,0.00,VWS V14.00,2013-01-12 20:31:00,
2013-01-12 15:36:00,62.3,60.8,30.06,WSW,257,3.1,5.0,95,0.00,,OVC110,0.00,VWS V14.00,2013-01-12 20:36:00,
2013-01-12 15:41:00,62.5,61.0,30.06,SW,236,3.3,5.0,95,0.00,,OVC110,0.00,VWS V14.00,2013-01-12 20:41:00,
2013-01-12 15:46:00,62.6,61.2,30.07,West,281,2.5,2.5,95,0.00,,OVC110,0.00,VWS V14.00,2013-01-12 20:46:00,
2013-01-12 15:51:00,62.3,60.8,30.06,SW,219,0.0,4.7,95,0.00,,OVC110,0.00,VWS V14.00,2013-01-12 20:51:00,
2013-01-12 15:56:00,62.4,60.9,30.06,South,190,5.3,5.5,95,0.00,,OVC110,0.00,VWS V14.00,2013-01-12 20:56:00,
2013-01-12 16:01:00,62.5,61.0,30.07,SSW,195,0.0,3.5,95,0.00,,BKN110,0.00,VWS V14.00,2013-01-12 21:01:00,
2013-01-12 16:06:00,62.4,61.0,30.07,SW,224,0.0,4.6,95,0.00,,BKN110,0.00,VWS V14.00,2013-01-12 21:06:00,
2013-01-12 16:11:00,62.5,61.0,30.06,WSW,246,3.0,6.7,95,0.00,,BKN110,0.00,VWS V14.00,2013-01-12 21:11:00,
2013-01-12 16:16:00,62.0,60.6,30.06,SW,235,5.0,5.0,95,0.00,,BKN110,0.00,VWS V14.00,2013-01-12 21:16:00,
2013-01-12 16:21:00,62.2,60.8,30.06,SSW,202,0.0,6.0,95,0.00,,BKN110,0.00,VWS V14.00,2013-01-12 21:21:00,
2013-01-12 16:26:00,61.6,60.2,30.06,SW,232,0.0,6.0,95,0.00,,BKN110,0.00,VWS V14.00,2013-01-12 21:26:00,
2013-01-12 16:31:00,62.2,60.8,30.07,West,262,0.0,0.0,95,0.00,,BKN110,0.00,VWS V14.00,2013-01-12 21:31:00,
2013-01-12 16:36:00,62.1,60.7,30.07,West,263,0.0,3.3,95,0.00,,BKN110,0.00,VWS V14.00,2013-01-12 21:36:00,
2013-01-12 16:41:00,62.1,60.7,30.07,West,263,0.0,3.3,95,0.00,,BKN110,0.00,VWS V14.00,2013-01-12 21:41:00,
2013-01-12 16:46:00,61.8,60.4,30.06,WSW,239,0.0,0.0,95,0.00,,OVC085,0.00,VWS V14.00,2013-01-12 21:46:00,
2013-01-12 16:51:00,61.5,60.2,30.06,WSW,239,0.0,0.0,95,0.00,,OVC085,0.00,VWS V14.00,2013-01-12 21:51:00,
2013-01-12 16:56:00,61.8,60.5,30.06,SSE,149,0.0,2.5,95,0.00,,OVC085,0.00,VWS V14.00,2013-01-12 21:56:00,
2013-01-12 17:01:00,62.5,61.2,30.06,SSW,195,0.0,3.2,96,0.00,,OVC085,0.00,VWS V14.00,2013-01-12 22:01:00,
2013-01-12 17:06:00,62.2,60.9,30.06,SSW,195,0.0,3.2,96,0.00,,OVC085,0.00,VWS V14.00,2013-01-12 22:06:00,
2013-01-12 17:11:00,62.2,61.0,30.06,SSW,195,0.0,3.2,96,0.00,,OVC085,0.00,VWS V14.00,2013-01-12 22:11:00,
2013-01-12 17:16:00,61.6,60.5,30.06,SSW,195,0.0,0.0,96,0.00,,OVC085,0.00,VWS V14.00,2013-01-12 22:16:00,
2013-01-12 17:21:00,59.3,58.3,30.06,SSW,195,0.0,0.0,96,0.00,,OVC085,0.00,VWS V14.00,2013-01-12 22:21:00,
2013-01-12 17:26:00,58.9,57.9,30.06,SSW,195,0.0,0.0,96,0.00,,OVC085,0.00,VWS V14.00,2013-01-12 22:26:00,
2013-01-12 17:31:00,59.7,58.8,30.06,SSW,195,0.0,0.0,97,0.00,,OVC085,0.00,VWS V14.00,2013-01-12 22:31:00,
2013-01-12 17:36:00,54.0,53.3,30.06,SSW,195,0.0,0.0,97,0.00,,OVC085,0.00,VWS V14.00,2013-01-12 22:36:00,
2013-01-12 17:41:00,54.5,53.9,30.06,SSW,195,0.0,0.0,98,0.00,,OVC085,0.00,VWS V14.00,2013-01-12 22:41:00,
2013-01-12 17:46:00,60.7,60.2,30.05,SSW,195,0.0,0.0,98,0.00,,BKN090,0.00,VWS V14.00,2013-01-12 22:46:00,
2013-01-12 17:51:00,59.9,59.5,30.05,SSW,195,0.0,0.0,99,0.00,,BKN090,0.00,VWS V14.00,2013-01-12 22:51:00,
2013-01-12 17:56:00,61.1,60.9,30.05,SSW,195,0.0,0.0,99,0.00,,BKN090,0.00,VWS V14.00,2013-01-12 22:56:00,
2013-01-12 18:01:00,61.0,60.9,30.05,SSW,195,0.0,0.0,100,0.00,,BKN090,0.00,VWS V14.00,2013-01-12 23:01:00,
2013-01-12 18:06:00,61.5,61.5,30.05,SSW,195,0.0,0.0,100,0.00,,BKN090,0.00,VWS V14.00,2013-01-12 23:06:00,
2013-01-12 18:11:00,61.5,61.5,30.05,SSW,195,0.0,0.0,100,0.00,,BKN090,0.00,VWS V14.00,2013-01-12 23:11:00,
2013-01-12 18:16:00,61.4,61.4,30.05,SSW,195,0.0,0.0,100,0.00,,BKN090,0.00,VWS V14.00,2013-01-12 23:16:00,
2013-01-12 18:21:00,61.4,61.4,30.05,SSW,195,0.0,0.0,100,0.00,,BKN090,0.00,VWS V14.00,2013-01-12 23:21:00,
2013-01-12 18:26:00,61.5,61.5,30.05,SSW,195,0.0,0.0,100,0.00,,BKN090,0.00,VWS V14.00,2013-01-12 23:26:00,
2013-01-12 18:31:00,61.2,61.2,30.05,SSW,195,0.0,0.0,100,0.00,,BKN090,0.00,VWS V14.00,2013-01-12 23:31:00,
2013-01-12 18:36:00,61.2,61.2,30.05,SSW,195,0.0,0.0,100,0.00,,BKN090,0.00,VWS V14.00,2013-01-12 23:36:00,
2013-01-12 18:41:00,60.8,60.8,30.05,SSW,195,0.0,0.0,100,0.00,,BKN090,0.00,VWS V14.00,2013-01-12 23:41:00,
2013-01-12 18:46:00,61.0,61.0,30.05,SSW,195,0.0,0.0,100,0.00,,FEW080,0.00,VWS V14.00,2013-01-12 23:46:00,
2013-01-12 18:51:00,60.9,60.9,30.05,SSW,195,0.0,0.0,100,0.00,,FEW080,0.00,VWS V14.00,2013-01-12 23:51:00,
2013-01-12 18:56:00,60.6,60.6,30.05,SSW,195,0.0,0.0,100,0.00,,FEW080,0.00,VWS V14.00,2013-01-12 23:56:00,
2013-01-12 19:01:00,60.4,60.4,30.05,SSW,195,0.0,0.0,100,0.00,,FEW080,0.00,VWS V14.00,2013-01-13 00:01:00,
2013-01-12 19:06:00,60.4,60.4,30.05,SSW,195,0.0,0.0,100,0.00,,FEW080,0.00,VWS V14.00,2013-01-13 00:06:00,
2013-01-12 19:11:00,60.2,60.2,30.05,SSW,195,0.0,0.0,100,0.00,,FEW080,0.00,VWS V14.00,2013-01-13 00:11:00,
2013-01-12 19:16:00,59.8,59.8,30.05,SSW,195,0.0,0.0,100,0.00,,,0.00,VWS V14.00,2013-01-13 00:16:00,
2013-01-12 19:22:00,58.8,58.8,30.05,SSW,195,0.0,0.0,100,0.00,,,0.00,VWS V14.00,2013-01-13 00:22:00,
2013-01-12 19:27:00,57.8,57.8,30.05,SSW,195,0.0,0.0,100,0.00,,,0.00,VWS V14.00,2013-01-13 00:27:00,
2013-01-12 19:32:00,57.9,57.9,30.05,SSW,195,0.0,0.0,100,0.00,,,0.00,VWS V14.00,2013-01-13 00:32:00,
2013-01-12 19:37:00,58.0,58.0,30.05,SSW,195,0.0,0.0,100,0.00,,,0.00,VWS V14.00,2013-01-13 00:37:00,
2013-01-12 19:42:00,58.1,58.1,30.05,SSW,195,0.0,0.0,100,0.00,,,0.00,VWS V14.00,2013-01-13 00:42:00,
2013-01-12 19:47:00,55.6,55.6,30.05,SSW,195,0.0,0.0,100,0.00,,,0.00,VWS V14.00,2013-01-13 00:47:00,
2013-01-12 19:52:00,57.0,57.0,30.05,SSW,195,0.0,0.0,100,0.00,,,0.00,VWS V14.00,2013-01-13 00:52:00,
2013-01-12 19:57:00,58.1,58.1,30.05,SSW,195,0.0,0.0,100,0.00,,,0.00,VWS V14.00,2013-01-13 00:57:00,
2013-01-12 20:02:00,58.3,58.3,30.05,SSW,195,0.0,0.0,100,0.00,,,0.00,VWS V14.00,2013-01-13 01:02:00,
2013-01-12 20:07:00,58.1,58.1,30.05,SSW,195,0.0,0.0,100,0.00,,,0.00,VWS V14.00,2013-01-13 01:07:00,
2013-01-12 20:12:00,56.9,56.9,30.05,SSW,195,0.0,0.0,100,0.00,,,0.00,VWS V14.00,2013-01-13 01:12:00,
2013-01-12 20:17:00,56.7,56.7,30.05,SSW,195,0.0,0.0,100,0.00,,,0.00,VWS V14.00,2013-01-13 01:17:00,
2013-01-12 20:22:00,57.8,57.8,30.05,SSW,195,0.0,0.0,100,0.00,,,0.00,VWS V14.00,2013-01-13 01:22:00,
2013-01-12 20:27:00,58.3,58.3,30.05,SSW,195,0.0,0.0,100,0.00,,,0.00,VWS V14.00,2013-01-13 01:27:00,
2013-01-12 20:32:00,59.0,59.0,30.05,SSW,195,0.0,0.0,100,0.00,,,0.00,VWS V14.00,2013-01-13 01:32:00,
2013-01-12 20:37:00,57.4,57.4,30.05,SSW,195,0.0,0.0,100,0.00,,,0.00,VWS V14.00,2013-01-13 01:37:00,
2013-01-12 20:42:00,56.3,56.3,30.05,SSW,195,0.0,0.0,100,0.00,,,0.00,VWS V14.00,2013-01-13 01:42:00,
2013-01-12 20:47:00,56.7,56.7,30.05,SSW,195,0.0,0.0,100,0.00,,,0.00,VWS V14.00,2013-01-13 01:47:00,
2013-01-12 20:52:00,57.3,57.3,30.05,SSW,195,0.0,0.0,100,0.00,,,0.00,VWS V14.00,2013-01-13 01:52:00,
2013-01-12 20:57:00,58.4,58.4,30.05,SSW,195,0.0,0.0,100,0.00,,,0.00,VWS V14.00,2013-01-13 01:57:00,
2013-01-12 21:02:00,58.3,58.3,30.05,SSW,195,0.0,0.0,100,0.00,,,0.00,VWS V14.00,2013-01-13 02:02:00,
2013-01-12 21:07:00,58.3,58.3,30.05,SSW,195,0.0,0.0,100,0.00,,,0.00,VWS V14.00,2013-01-13 02:07:00,
2013-01-12 21:12:00,56.4,56.4,30.05,SSW,195,0.0,0.0,100,0.00,,,0.00,VWS V14.00,2013-01-13 02:12:00,
2013-01-12 21:17:00,56.6,56.6,30.05,SSW,195,0.0,0.0,100,0.00,,,0.00,VWS V14.00,2013-01-13 02:17:00,
2013-01-12 21:22:00,57.0,57.0,30.05,SSW,195,0.0,0.0,100,0.00,,,0.00,VWS V14.00,2013-01-13 02:22:00,
2013-01-12 21:27:00,56.4,56.4,30.05,SSW,195,0.0,0.0,100,0.00,,,0.00,VWS V14.00,2013-01-13 02:27:00,
2013-01-12 21:32:00,56.3,56.3,30.05,SSW,195,0.0,0.0,100,0.00,,,0.00,VWS V14.00,2013-01-13 02:32:00,
2013-01-12 21:37:00,56.5,56.5,30.05,SSW,195,0.0,0.0,100,0.00,,,0.00,VWS V14.00,2013-01-13 02:37:00,
2013-01-12 21:42:00,58.2,58.2,30.05,SSW,195,0.0,0.0,100,0.00,,,0.00,VWS V14.00,2013-01-13 02:42:00,
2013-01-12 21:47:00,58.1,58.1,30.05,SSW,195,0.0,0.0,100,0.00,,,0.00,VWS V14.00,2013-01-13 02:47:00,
2013-01-12 21:52:00,58.9,58.9,30.05,SSW,195,0.0,0.0,100,0.00,,,0.00,VWS V14.00,2013-01-13 02:52:00,
2013-01-12 21:57:00,58.4,58.4,30.05,SW,219,0.0,2.3,100,0.00,,,0.00,VWS V14.00,2013-01-13 02:57:00,
2013-01-12 22:02:00,59.1,59.1,30.04,SW,219,0.0,0.0,100,0.00,,,0.00,VWS V14.00,2013-01-13 03:02:00,
2013-01-12 22:07:00,59.0,59.0,30.05,SW,219,0.0,0.0,100,0.00,,,0.00,VWS V14.00,2013-01-13 03:07:00,
2013-01-12 22:12:00,59.0,59.0,30.05,SW,219,0.0,0.0,100,0.00,,,0.00,VWS V14.00,2013-01-13 03:12:00,
2013-01-12 22:17:00,58.7,58.7,30.04,SW,219,0.0,0.0,100,0.00,,,0.00,VWS V14.00,2013-01-13 03:17:00,
2013-01-12 22:22:00,58.0,58.0,30.05,SW,219,0.0,0.0,100,0.00,,,0.00,VWS V14.00,2013-01-13 03:22:00,
2013-01-12 22:27:00,57.7,57.7,30.05,SW,219,0.0,0.0,100,0.00,,,0.00,VWS V14.00,2013-01-13 03:27:00,
2013-01-12 22:32:00,57.4,57.4,30.05,SW,219,0.0,0.0,100,0.00,,,0.00,VWS V14.00,2013-01-13 03:32:00,
2013-01-12 22:37:00,56.7,56.7,30.05,SW,219,0.0,0.0,100,0.00,,,0.00,VWS V14.00,2013-01-13 03:37:00,
2013-01-12 22:42:00,56.2,56.2,30.05,SW,219,0.0,0.0,100,0.00,,,0.00,VWS V14.00,2013-01-13 03:42:00,
2013-01-12 22:47:00,56.3,56.3,30.05,SW,219,0.0,0.0,100,0.00,,,0.00,VWS V14.00,2013-01-13 03:47:00,
2013-01-12 22:52:00,56.3,56.3,30.05,SW,219,0.0,0.0,100,0.00,,,0.00,VWS V14.00,2013-01-13 03:52:00,
2013-01-12 22:57:00,57.7,57.7,30.05,SW,219,0.0,0.0,100,0.00,,,0.00,VWS V14.00,2013-01-13 03:57:00,
2013-01-12 23:02:00,57.7,57.7,30.05,SW,219,0.0,0.0,100,0.00,,,0.00,VWS V14.00,2013-01-13 04:02:00,
2013-01-12 23:07:00,55.5,55.5,30.05,SW,219,0.0,0.0,100,0.00,,,0.00,VWS V14.00,2013-01-13 04:07:00,
2013-01-12 23:12:00,55.6,55.6,30.05,SW,219,0.0,0.0,100,0.00,,,0.00,VWS V14.00,2013-01-13 04:12:00,
2013-01-12 23:17:00,55.8,55.8,30.05,SW,219,0.0,0.0,100,0.00,,,0.00,VWS V14.00,2013-01-13 04:17:00,
2013-01-12 23:22:00,55.8,55.8,30.05,SW,219,0.0,0.0,100,0.00,,,0.00,VWS V14.00,2013-01-13 04:22:00,
2013-01-12 23:27:00,57.3,57.3,30.05,SW,219,0.0,0.0,100,0.00,,,0.00,VWS V14.00,2013-01-13 04:27:00,
2013-01-12 23:32:00,58.1,58.1,30.04,SW,219,0.0,0.0,100,0.00,,,0.00,VWS V14.00,2013-01-13 04:32:00,
2013-01-12 23:37:00,57.1,57.1,30.04,SW,219,0.0,0.0,100,0.00,,,0.00,VWS V14.00,2013-01-13 04:37:00,
2013-01-12 23:42:00,57.7,57.7,30.04,SW,219,0.0,0.0,100,0.00,,,0.00,VWS V14.00,2013-01-13 04:42:00,
2013-01-12 23:47:00,56.2,56.2,30.04,SW,217,0.0,0.0,100,0.00,,,0.00,VWS V14.00,2013-01-13 04:47:00,
2013-01-12 23:52:00,55.7,55.7,30.04,SW,217,0.0,0.0,100,0.00,,,0.00,VWS V14.00,2013-01-13 04:52:00,
2013-01-12 23:57:00,56.2,56.2,30.04,SW,219,0.0,5.4,100,0.00,,,0.00,VWS V14.00,2013-01-13 04:57:00,